Flag for U.S.A. Weather past 2 weeks in Vista, California, U.S.A.

Now
63 °F

Scattered clouds.


Feels Like: 63 °F
Forecast: 58 / 71 °F
Wind: 7 mph from North

Location: McClellan-Palomar Airport

Current Time: Jun 2, 2015 at 8:42:55 PM

Latest Report: Jun 2, 2015 at 7:53 PM


Visibility: 10 mi

Pressure: 29.94 "Hg

Humidity: 78%

Dew point: 56 °F

Location of VistaLocation

Historic Weather in Vista — Graph

°F

Vista temperature yesterday

Maximum temperature yesterday: 67 °F (at 11:53 AM)
Minimum temperature yesterday: 60 °F (at 12:53 AM)
Average temperature yesterday: 63 °F

Past Weeks' High & Low Weather Summary

 TemperatureHumidityPressure
High68 °F (May 30, 3:53 PM)93% (May 27, 4:53 AM)30.09 "Hg (May 27, 4:53 AM)
Low56 °F (May 19, 4:53 AM)56% (May 19, 12:53 PM)29.88 "Hg (May 30, 5:53 PM)
Average62 °F76%29.97 "Hg
* Reported May 18 6:53 PM — Jun 2 6:53 PM, Vista, Weather by CustomWeather, © 2015

Note: Actual official high and low records may vary slightly from our data, if they occured in-between our weather recording intervals... More about our weather records

Advertising

Vista weather history for previous 24 hours

 ConditionsComfort  
Time TempWeatherWind HumidityBarometerVisibility
6:53 PM
Tue, Jun 2
63 °FScattered clouds.6 mph78%29.93 "Hg10 mi
5:53 PM64 °FSunny.7 mph75%29.93 "Hg10 mi
4:53 PM65 °FSunny.8 mph73%29.94 "Hg10 mi
3:53 PM67 °FPassing clouds.9 mph71%29.95 "Hg10 mi
2:53 PM67 °FSunny.6 mph71%29.96 "Hg10 mi
1:53 PM67 °FSunny.7 mph66%29.97 "Hg10 mi
12:53 PM67 °FSunny.12 mph71%29.98 "Hg10 mi
11:53 AM67 °FSunny.12 mph71%29.98 "Hg10 mi
10:53 AM67 °FSunny.8 mph71%29.98 "Hg10 mi
9:53 AM66 °FPassing clouds.3 mph70%29.98 "Hg10 mi
8:53 AM63 °FOvercast.3 mph78%30.00 "Hg10 mi
7:53 AM63 °FOvercast.No wind78%29.99 "Hg10 mi
6:53 AM62 °FOvercast.No wind80%29.98 "Hg10 mi
5:53 AM62 °FOvercast.No wind83%29.98 "Hg10 mi
4:53 AM62 °FOvercast.5 mph80%29.97 "Hg10 mi
3:53 AM62 °FOvercast.No wind83%29.97 "Hg10 mi
2:53 AM62 °FOvercast.3 mph83%29.97 "Hg10 mi
1:53 AM62 °FOvercast.3 mph83%29.99 "Hg10 mi
12:53 AM62 °FOvercast.No wind83%29.99 "Hg10 mi
11:53 PM
Mon, Jun 1
62 °FPassing clouds.No wind80%30.00 "Hg10 mi
10:53 PM62 °FClear.No wind83%30.00 "Hg10 mi
9:53 PM63 °FPassing clouds.No wind78%29.99 "Hg10 mi
Weather by CustomWeather, © 2015

See weather overviewHow to use our weather pages